KB1WCR Weather Reports


time (UTC)temp
F
wind
direction
speed
knots
gust
knots
rain 1hr
in
rain 24hr
in
rain mn
in
humidity
%
barometer
mb
20260903154426 63 353 0.0 0.0 0.00 0.07 0.07 99 1015.0
20260903153921 63 151 0.0 0.9 0.00 0.07 0.07 99 1014.9
20260903153416 63 207 0.9 1.7 0.00 0.07 0.07 99 1015.0
20260903152913 63 321 0.9 1.7 0.00 0.07 0.07 99 1015.0
20260903152408 63 266 0.0 0.0 0.00 0.07 0.07 99 1015.2
20260903151903 63 56 0.9 0.9 0.00 0.07 0.07 99 1015.3
20260903151358 63 318 0.9 0.9 0.00 0.07 0.07 99 1015.3
20260903150852 63 39 1.7 1.7 0.00 0.07 0.07 99 1015.4
20260903150346 63 201 1.7 1.7 0.00 0.07 0.07 99 1015.3
20260903145841 62 318 0.9 1.7 0.00 0.07 0.07 99 1015.6
20260903145337 63 29 0.0 0.9 0.00 0.07 0.07 99 1015.4
20260903144836 62 299 0.0 0.0 0.00 0.07 0.07 99 1015.3
20260903144331 62 18 0.9 0.9 0.00 0.07 0.07 99 1015.4
20260903143826 62 143 0.0 0.0 0.00 0.07 0.07 99 1015.4
20260903143323 62 90 0.9 1.7 0.00 0.07 0.07 99 1015.5
20260903142819 62 177 0.9 1.7 0.00 0.07 0.07 99 1015.6
20260903142315 62 306 0.0 0.0 0.00 0.07 0.07 99 1015.6
20260903141810 62 67 0.9 0.9 0.00 0.07 0.07 99 1015.8
20260903141306 62 73 0.9 0.9 0.00 0.07 0.07 99 1015.6
20260903140806 62 304 0.0 0.0 0.00 0.07 0.07 99 1015.7
20260903140300 61 9 0.9 0.9 0.00 0.07 0.07 99 1015.7
20260903135756 61 319 0.0 0.9 0.00 0.07 0.07 99 1016.0
20260903135252 61 23 1.7 1.7 0.00 0.07 0.07 99 1015.8
20260903134750 61 322 0.0 0.0 0.00 0.07 0.07 99 1015.7
20260903134246 61 295 0.0 0.0 0.00 0.07 0.07 99 1015.9
20260903133743 61 23 1.7 1.7 0.00 0.07 0.07 99 1015.8
20260903133240 61 281 0.9 1.7 0.00 0.07 0.07 99 1015.8
20260903132740 61 32 0.9 0.9 0.00 0.07 0.07 99 1015.9
20260903132235 61 325 0.0 0.0 0.00 0.07 0.07 99 1015.8
20260903131730 61 340 0.0 0.0 0.00 0.07 0.07 99 1016.0
20260903131225 61 41 1.7 1.7 0.00 0.07 0.07 99 1015.9
20260903130725 61 252 0.9 1.7 0.00 0.07 0.07 99 1016.0
20260903130221 61 334 0.0 0.0 0.00 0.07 0.07 99 1015.8
20260903125718 61 236 0.9 0.9 0.00 0.07 0.07 99 1016.1
20260903125214 61 304 0.9 0.9 0.00 0.07 0.07 99 1016.2
20260903124713 61 14 1.7 1.7 0.00 0.07 0.07 99 1016.0
20260903124208 61 274 0.0 0.9 0.00 0.07 0.07 99 1016.2
20260903123707 61 326 0.0 0.0 0.05 0.07 0.07 99 1016.1
20260903123206 61 312 0.0 0.0 0.05 0.07 0.07 99 1016.2
20260903122700 61 305 0.9 0.9 0.00 0.06 0.06 99 1016.1
20260903122154 60 301 0.0 0.0 0.00 0.06 0.06 99 1016.5
20260903121654 60 339 0.0 0.0 0.00 0.06 0.06 99 1016.4
20260903121150 60 321 0.0 0.9 0.07 0.06 0.06 99 1016.5
20260903120649 60 321 0.0 0.0 0.12 0.06 0.06 99 1016.6
20260903120143 60 305 0.0 0.0 0.05 0.05 0.05 99 1016.7
20260903115641 60 306 0.0 0.0 0.00 0.04 0.04 99 1016.9
20260903115137 60 306 0.0 0.0 0.00 0.04 0.04 99 1016.9
20260903114632 60 298 0.0 0.0 0.00 0.04 0.04 99 1016.8
20260903114127 60 312 0.0 0.0 0.00 0.04 0.04 99 1016.7
20260903113623 60 321 0.0 0.0 0.00 0.04 0.04 99 1016.8
20260903113119 60 310 0.0 0.0 0.00 0.04 0.04 99 1016.6
20260903112615 60 308 0.0 0.0 0.00 0.04 0.04 99 1016.5
20260903112114 60 305 0.0 0.0 0.00 0.04 0.04 99 1016.4
20260903111614 60 317 0.0 0.0 0.00 0.04 0.04 99 1016.5
20260903111109 60 305 0.0 0.0 0.00 0.04 0.04 99 1016.4
20260903110605 60 324 0.0 0.0 0.00 0.04 0.04 99 1016.5
20260903110100 60 302 0.0 0.0 0.00 0.04 0.04 99 1016.3
20260903105555 60 309 0.0 0.0 0.00 0.04 0.04 99 1016.3
20260903105049 60 310 0.0 0.0 0.00 0.04 0.04 99 1016.4
20260903104544 60 310 0.0 0.0 0.00 0.04 0.04 99 1016.4
20260903104040 60 321 0.0 0.0 0.00 0.04 0.04 99 1016.6
20260903103535 60 323 0.0 0.0 0.00 0.04 0.04 99 1016.5
20260903103032 60 326 0.0 0.0 0.00 0.04 0.04 99 1016.5
20260903102527 60 306 0.0 0.0 0.00 0.04 0.04 99 1016.8
20260903102026 60 305 0.0 0.0 0.00 0.04 0.04 99 1016.8
20260903101520 60 283 0.0 0.0 0.00 0.04 0.04 99 1016.8
20260903101016 61 287 0.0 0.0 0.07 0.04 0.04 99 1016.9
20260903100510 61 308 0.0 0.0 0.07 0.04 0.04 99 1016.9
20260903100009 61 307 0.0 0.0 0.00 0.03 0.03 99 1016.7
20260903095502 61 296 0.0 0.0 0.00 0.03 0.03 99 1016.7
20260903094957 61 309 0.0 0.0 0.00 0.03 0.03 99 1016.7
20260903094457 61 292 0.0 0.0 0.00 0.03 0.03 99 1016.8
20260903093953 61 306 0.0 0.0 0.00 0.03 0.03 99 1016.6
20260903093448 61 333 0.0 0.0 0.00 0.03 0.03 99 1016.8
20260903092943 61 301 0.0 0.0 0.00 0.03 0.03 99 1016.9
20260903092437 61 317 0.0 0.0 0.00 0.03 0.03 99 1017.1
20260903091937 61 345 0.0 0.0 0.05 0.03 0.03 99 1017.3
20260903091435 61 330 0.0 0.0 0.12 0.03 0.03 99 1017.1
20260903090930 61 304 0.0 0.0 0.07 0.02 0.02 99 1017.2
20260903090426 61 307 0.0 0.0 0.07 0.02 0.02 99 1017.4
20260903085924 61 309 0.0 0.0 0.05 0.01 0.01 99 1017.3
20260903085423 61 298 0.0 0.0 0.00 0.00 0.00 99 1017.4
20260903084923 61 313 0.0 0.0 0.00 0.00 0.00 99 1017.3
20260903084421 61 300 0.0 0.0 0.00 0.00 0.00 99 1017.5
20260903083916 61 307 0.0 0.0 0.00 0.00 0.00 99 1017.4
20260903083413 61 306 0.0 0.0 0.00 0.00 0.00 99 1017.2
20260903082911 61 301 0.0 0.0 0.00 0.00 0.00 99 1017.2
20260903082407 61 313 0.0 0.0 0.00 0.00 0.00 99 1017.1
20260903081902 61 310 0.0 0.0 0.00 0.00 0.00 99 1017.0
20260903081357 61 308 0.0 0.0 0.00 0.00 0.00 99 1016.9
20260903080853 61 301 0.0 0.0 0.00 0.00 0.00 99 1017.0
20260903080350 61 312 0.0 0.0 0.00 0.00 0.00 99 1016.9
20260903075849 61 306 0.0 0.0 0.00 0.00 0.00 99 1017.1
20260903075345 61 312 0.0 0.0 0.00 0.00 0.00 99 1017.0
20260903074839 61 315 0.0 0.0 0.00 0.00 0.00 99 1017.2
20260903074333 61 312 0.0 0.0 0.00 0.00 0.00 99 1017.3
20260903073829 61 310 0.0 0.0 0.00 0.00 0.00 99 1017.4
20260903073324 61 305 0.0 0.0 0.00 0.00 0.00 99 1017.3
20260903072820 61 328 0.0 0.0 0.00 0.00 0.00 99 1017.3
20260903072316 61 7 0.9 1.7 0.00 0.00 0.00 99 1017.3
20260903071812 61 307 0.0 0.0 0.00 0.00 0.00 99 1017.4
20260903071308 61 313 0.0 0.0 0.00 0.00 0.00 99 1017.5
20260903070802 61 8 0.0 0.9 0.00 0.00 0.00 99 1017.7
20260903070258 61 6 0.0 0.9 0.00 0.00 0.00 99 1017.7
20260903065753 61 311 0.0 0.0 0.00 0.00 0.00 99 1018.0
20260903065252 61 324 0.0 0.0 0.00 0.00 0.00 99 1018.1
20260903064751 61 311 0.0 0.0 0.00 0.00 0.00 99 1018.3
20260903064247 61 342 0.0 0.0 0.00 0.00 0.00 99 1018.4
20260903063743 61 317 0.0 0.0 0.00 0.00 0.00 99 1018.4
20260903063237 61 299 0.0 0.0 0.00 0.00 0.00 99 1018.6
20260903062733 61 297 0.0 0.0 0.00 0.00 0.00 99 1018.5
20260903062227 61 296 0.0 0.0 0.00 0.00 0.00 99 1018.7
20260903061724 61 313 0.0 0.0 0.00 0.00 0.00 99 1018.6
20260903061222 61 318 0.0 0.0 0.00 0.00 0.00 99 1018.8
20260903060717 61 306 0.0 0.0 0.00 0.00 0.00 99 1018.8
20260903060212 61 308 0.0 0.0 0.00 0.00 0.00 99 1018.8
20260903055709 61 327 0.0 0.0 0.00 0.00 0.00 99 1018.9
20260903055208 60 303 0.0 0.0 0.00 0.00 0.00 99 1019.2
20260903054703 60 308 0.0 0.0 0.00 0.00 0.00 99 1019.2
20260903054159 60 302 0.0 0.0 0.00 0.00 0.00 99 1019.1
20260903053655 60 314 0.0 0.0 0.00 0.00 0.00 99 1019.1
20260903053150 60 300 0.0 0.0 0.00 0.00 0.00 99 1019.2
20260903052646 60 306 0.0 0.0 0.00 0.00 0.00 99 1019.0
20260903052141 60 315 0.0 0.0 0.00 0.00 0.00 99 1019.3
20260903051636 60 314 0.0 0.0 0.00 0.00 0.00 99 1019.3
20260903051131 60 310 0.0 0.0 0.00 0.00 0.00 99 1019.2
20260903050626 60 314 0.0 0.0 0.00 0.00 0.00 99 1019.3
20260903050121 60 310 0.0 0.0 0.00 0.00 0.00 99 1019.2
20260903045620 60 304 0.0 0.0 0.00 0.00 0.00 99 1019.4
20260903045117 60 314 0.0 0.0 0.00 0.00 0.00 99 1019.4
20260903044612 60 318 0.0 0.0 0.00 0.00 0.00 99 1019.4
20260903044108 60 301 0.0 0.0 0.00 0.00 0.00 99 1019.4
20260903043604 60 300 0.0 0.0 0.00 0.00 0.00 99 1019.5
20260903043103 60 300 0.0 0.0 0.00 0.00 0.00 99 1019.5
20260903042558 60 349 0.0 0.9 0.00 0.00 0.00 99 1019.5
20260903042053 60 313 0.0 0.0 0.00 0.00 0.00 99 1019.6
20260903041550 60 316 0.0 0.0 0.00 0.00 0.00 99 1019.9
20260903041045 60 316 0.0 0.0 0.00 0.00 0.00 99 1020.0
20260903040543 60 312 0.0 0.0 0.00 0.00 0.00 99 1020.1
20260903040040 60 304 0.0 0.0 0.00 0.00 0.00 99 1020.1
20260903035535 60 305 0.0 0.0 0.00 0.00 0.00 99 1020.2
20260903035031 60 299 0.0 0.0 0.00 0.00 0.00 99 1020.2
20260903034526 60 310 0.0 0.0 0.00 0.00 0.00 99 1020.2
20260903034021 60 321 0.0 0.0 0.00 0.00 0.00 99 1020.2
20260903033515 60 304 0.0 0.0 0.00 0.00 0.00 99 1020.3
20260903033011 60 304 0.0 0.0 0.00 0.00 0.00 99 1020.6
20260903032506 60 307 0.0 0.0 0.00 0.00 0.00 99 1020.3
20260903032000 60 306 0.0 0.0 0.00 0.00 0.00 99 1020.3
20260903031455 60 307 0.0 0.0 0.00 0.00 0.00 99 1020.4
20260903030950 60 320 0.0 0.0 0.00 0.00 0.00 99 1020.4
20260903030446 60 302 0.0 0.0 0.00 0.00 0.00 99 1020.7
20260903025941 60 309 0.0 0.0 0.00 0.00 0.00 99 1020.4
20260903025431 60 300 0.0 0.0 0.00 0.00 0.00 99 1020.4
20260903024926 60 342 0.0 0.0 0.00 0.00 0.00 99 1020.2
20260903024420 60 312 0.0 0.0 0.00 0.00 0.00 99 1020.4
20260903023915 60 312 0.0 0.0 0.00 0.00 0.00 99 1020.5
20260903023411 60 343 0.0 0.0 0.00 0.00 0.00 99 1020.6
20260903022907 60 327 0.0 0.0 0.00 0.00 0.00 99 1020.7
20260903022405 60 311 0.0 0.0 0.00 0.00 0.00 99 1020.7
20260903021904 60 310 0.0 0.0 0.00 0.00 0.00 99 1020.7
20260903021359 60 306 0.0 0.0 0.00 0.00 0.00 99 1020.9
20260903020859 60 341 0.0 0.0 0.00 0.00 0.00 99 1020.8
20260903020355 60 296 0.0 0.0 0.00 0.00 0.00 99 1020.9
20260903015849 60 305 0.0 0.0 0.00 0.00 0.00 99 1021.0
20260903015344 60 302 0.0 0.0 0.00 0.00 0.00 99 1020.8
20260903014839 60 288 0.0 0.0 0.00 0.00 0.00 99 1020.8
20260903014334 60 50 0.0 0.0 0.00 0.00 0.00 99 1020.8
20260903013829 60 299 0.0 0.0 0.00 0.00 0.00 99 1020.8
20260903013328 60 283 0.0 0.0 0.00 0.00 0.00 99 1020.8
20260903012828 60 303 0.0 0.0 0.00 0.00 0.00 99 1020.9
20260903012321 60 302 0.0 0.0 0.00 0.00 0.00 99 1020.9
20260903011820 60 281 0.0 0.0 0.00 0.00 0.00 99 1020.8
20260903011315 60 333 0.0 0.0 0.00 0.00 0.00 99 1020.8
20260903010810 59 306 0.0 0.0 0.00 0.00 0.00 99 1020.9
20260903010306 59 75 0.9 1.7 0.00 0.00 0.00 99 1020.8
20260903005804 59 309 0.0 0.0 0.00 0.00 0.00 99 1020.7
20260903005259 59 276 0.0 0.0 0.00 0.00 0.00 99 1020.6
20260903004755 59 17 0.9 0.9 0.00 0.00 0.00 99 1020.5
20260903004250 59 303 0.0 0.9 0.00 0.00 0.00 99 1020.5
20260903003746 60 311 0.0 0.0 0.00 0.00 0.00 99 1020.5
20260903003240 60 301 0.0 0.0 0.00 0.00 0.00 99 1020.6
20260903002735 60 333 0.0 0.0 0.00 0.00 0.00 99 1020.7
20260903002229 60 336 0.0 0.0 0.00 0.00 0.00 99 1020.6
20260903001725 60 342 0.0 0.0 0.00 0.00 0.00 99 1020.6
20260903001225 60 287 0.0 0.0 0.00 0.00 0.00 99 1020.5
20260903000720 60 303 0.0 0.0 0.00 0.00 0.00 99 1020.6
20260903000219 60 240 0.9 0.9 0.00 0.00 0.00 99 1020.8
20260902235718 60 315 0.0 0.0 0.00 0.00 0.00 98 1020.9
20260902235214 60 280 0.0 0.0 0.00 0.00 0.00 98 1021.0
20260902234713 60 2 0.9 0.9 0.00 0.00 0.00 98 1021.0
20260902234212 60 323 0.9 0.9 0.00 0.00 0.00 97 1020.9
20260902233706 61 311 0.0 0.0 0.00 0.00 0.00 97 1021.1
20260902233201 61 287 0.0 0.0 0.00 0.00 0.00 97 1021.3
20260902232700 61 315 0.0 0.0 0.00 0.00 0.00 97 1021.3
20260902232159 61 339 0.0 0.0 0.00 0.00 0.00 96 1021.4
20260902231653 61 324 0.0 0.0 0.00 0.00 0.00 96 1021.4
20260902231148 61 290 0.0 0.0 0.00 0.00 0.00 96 1021.5
20260902230644 61 315 0.0 0.0 0.00 0.00 0.00 95 1021.5
20260902230143 62 304 0.0 0.0 0.00 0.00 0.00 95 1021.5
20260902225638 62 331 0.0 0.0 0.00 0.00 0.00 94 1021.4
20260902225137 62 317 0.0 0.0 0.00 0.00 0.00 94 1021.4
20260902224636 62 330 0.0 0.0 0.00 0.00 0.00 94 1021.4
20260902224132 62 350 0.0 0.0 0.00 0.00 0.00 93 1021.7
20260902223628 62 3 0.9 1.7 0.00 0.00 0.00 93 1021.7
20260902223127 63 356 0.9 0.9 0.00 0.00 0.00 92 1021.8
20260902222626 63 303 0.0 0.0 0.00 0.00 0.00 92 1022.0
20260902222125 63 336 0.0 0.0 0.00 0.00 0.00 91 1021.9
20260902221619 63 287 0.0 0.0 0.00 0.00 0.00 91 1021.7
20260902221114 64 262 0.0 0.0 0.00 0.00 0.00 90 1021.7
20260902220610 64 289 0.9 0.9 0.00 0.00 0.00 90 1021.6
20260902220104 64 322 0.0 0.0 0.00 0.00 0.00 90 1021.7
20260902215601 64 351 0.0 0.0 0.00 0.00 0.00 90 1021.8
20260902215055 64 284 0.9 0.9 0.00 0.00 0.00 89 1021.7
20260902214550 64 12 1.7 2.6 0.00 0.00 0.00 88 1021.8
20260902214049 64 330 0.0 0.0 0.00 0.00 0.00 88 1021.8
20260902213545 64 15 0.9 1.7 0.00 0.00 0.00 88 1022.0
20260902213044 64 43 0.9 0.9 0.00 0.00 0.00 88 1021.9
20260902212539 64 330 1.7 2.6 0.00 0.00 0.00 87 1021.7
20260902212030 65 89 0.9 0.9 0.00 0.00 0.00 86 1022.0
20260902211526 65 326 0.0 0.9 0.00 0.00 0.00 87 1021.9
20260902211020 65 348 0.0 0.9 0.00 0.00 0.00 86 1021.8
20260902210514 65 317 0.0 0.0 0.00 0.00 0.00 85 1021.8
20260902210013 65 349 0.9 0.9 0.00 0.00 0.00 85 1021.7
20260902205508 64 11 0.9 0.9 0.00 0.00 0.00 85 1021.8
20260902205003 65 251 1.7 1.7 0.00 0.00 0.00 85 1022.2
20260902204502 65 330 0.9 1.7 0.00 0.00 0.00 85 1022.3
20260902203958 65 212 0.9 0.9 0.00 0.00 0.00 84 1022.2
20260902203454 66 240 1.7 1.7 0.00 0.00 0.00 83 1022.4
20260902202952 66 299 0.0 0.0 0.00 0.00 0.00 84 1022.3
20260902202448 66 3 2.6 3.5 0.00 0.00 0.00 84 1022.2
20260902201945 66 327 0.9 0.9 0.00 0.00 0.00 83 1022.1
20260902201440 66 284 0.9 0.9 0.00 0.00 0.00 83 1022.3
20260902200940 66 187 0.0 0.9 0.00 0.00 0.00 84 1022.3
20260902200435 66 304 1.7 1.7 0.00 0.00 0.00 83 1022.2
20260902195930 66 339 0.0 0.9 0.00 0.00 0.00 83 1022.1
20260902195426 66 326 3.5 5.2 0.00 0.00 0.00 82 1022.5
20260902194920 66 263 0.9 1.7 0.00 0.00 0.00 83 1022.7
20260902194419 66 7 0.9 0.9 0.00 0.00 0.00 83 1022.5
20260902193915 66 57 2.6 3.5 0.00 0.00 0.00 82 1022.7
20260902193411 66 48 3.5 5.2 0.00 0.00 0.00 81 1022.9
20260902192909 66 318 0.0 0.9 0.00 0.00 0.00 83 1022.8
20260902192409 66 11 1.7 2.6 0.00 0.00 0.00 83 1022.8
20260902191908 66 259 0.9 1.7 0.00 0.00 0.00 82 1022.7
20260902191404 65 205 0.9 1.7 0.00 0.00 0.00 83 1022.8
20260902190858 65 60 2.6 2.6 0.00 0.00 0.00 83 1022.8
20260902190353 65 68 0.9 1.7 0.00 0.00 0.00 83 1022.8
20260902185849 65 352 1.7 1.7 0.00 0.00 0.00 83 1022.8
20260902185345 66 8 2.6 5.2 0.00 0.00 0.00 82 1023.1
20260902184840 65 95 0.9 0.9 0.00 0.00 0.00 83 1022.9
20260902184335 66 316 0.9 0.9 0.00 0.00 0.00 82 1022.9
20260902183830 66 320 0.9 0.9 0.00 0.00 0.00 83 1022.8
20260902183327 66 239 0.9 1.7 0.00 0.00 0.00 83 1022.9
20260902182822 66 347 0.9 0.9 0.00 0.00 0.00 82 1022.9
20260902182319 66 298 1.7 2.6 0.00 0.00 0.00 82 1022.9
20260902181815 66 287 0.9 0.9 0.00 0.00 0.00 81 1022.9
20260902181310 66 338 0.0 0.9 0.00 0.00 0.00 82 1023.0
20260902180804 67 177 0.9 0.9 0.00 0.00 0.00 83 1023.2
20260902180300 67 281 0.9 0.9 0.00 0.00 0.00 80 1023.2
20260902175755 67 138 0.9 0.9 0.00 0.00 0.00 82 1023.1
20260902175251 67 288 0.9 0.9 0.00 0.00 0.00 82 1023.1
20260902174746 67 249 0.9 1.7 0.00 0.00 0.00 82 1023.0
20260902174242 68 344 0.9 0.9 0.00 0.00 0.00 80 1023.0
20260902173737 67 259 1.7 1.7 0.00 0.00 0.00 81 1022.8
20260902173237 67 247 0.9 1.7 0.00 0.00 0.00 81 1022.9
20260902172731 68 349 1.7 2.6 0.00 0.00 0.00 80 1022.8
20260902172226 68 59 2.6 2.6 0.00 0.00 0.00 79 1022.8
20260902171721 68 37 4.3 5.2 0.00 0.00 0.00 79 1022.7
20260902171216 68 333 0.9 0.9 0.00 0.00 0.00 79 1022.7
20260902170712 68 4 5.2 7.8 0.00 0.00 0.00 77 1022.8
20260902170208 68 137 2.6 2.6 0.00 0.00 0.00 78 1022.7
20260902165702 69 8 0.9 0.9 0.00 0.00 0.00 78 1022.7
20260902165156 69 210 0.0 0.0 0.00 0.00 0.00 79 1022.7
20260902164652 68 323 0.9 0.9 0.00 0.00 0.00 80 1022.9
20260902164150 68 55 3.5 3.5 0.00 0.00 0.00 77 1022.8
20260902163646 68 194 3.5 6.1 0.00 0.00 0.00 77 1022.9
20260902163146 68 255 1.7 1.7 0.00 0.00 0.00 77 1023.0
20260902162644 68 194 1.7 1.7 0.00 0.00 0.00 79 1023.1
20260902162139 68 240 2.6 2.6 0.00 0.00 0.00 76 1023.2
20260902161634 68 199 2.6 2.6 0.00 0.00 0.00 77 1023.3
20260902161130 69 233 0.0 0.9 0.00 0.00 0.00 78 1023.3
20260902160626 69 321 0.0 0.0 0.00 0.00 0.00 78 1023.3
20260902160120 69 202 2.6 2.6 0.00 0.00 0.00 76 1023.3
20260902155613 69 276 0.0 0.9 0.00 0.00 0.00 76 1023.4
20260902155112 69 285 0.9 1.7 0.00 0.00 0.00 77 1023.4